STARLINK-33601, 62768

Orbit data source: Space-Track

STARLINK-33601, 62768 is a payload satellite owned by SpaceX/Seattle (US) in LEO that was launched on Tue, 21 Jan 2025 UTC via an FALCON 9 launch vehicle from the Air Force Western Test Range (AFWTR). Payload-class satellites include a variety of spacecraft equipped with specific instruments for various scientific and technological missions. These include communications satellites like Starlink; space stations such as the ISS; scientific satellites like the Hubble; Earth observation satellites from companies like Planet Labs, Umbra, and HawkEye 360; GPS; miniature CubeSats for education and research; and military/defense satellites.

Loading next visibility...
Identifier
62768, 2025-015L
Orbit
LEO
Country
Flag of USUS
Related business
Manufacturer
SpaceX/Seattle
Mission
Operational Commercial Communications
Bus & Motor
STARLINK V2MO, Unknown motor
Mass
575 kg wet, ~530 kg dry
Launch date (UTC)
2025-01-21 (1 year ago)
Launch vehicle
FALCON 9
Launch site
Air Force Western Test Range (AFWTR)
Object type
Payload
Rocket body
Debris
Shape & HBR
Box + 2 Pan, 17.7 m
Radar Cross Section
36.964 m², Large (>1 m²)

Expand to show TLE details & history
Last TLE update: 9 hours ago

TLE from 9 hours ago
0 STARLINK-33601
1 62768U 25015L   26171.45835314  .00012039  00000-0  36682-3 0  9995
2 62768  53.1571 203.8188 0001168  85.9776 274.1360 15.34405092 80230
Epoch: 2026-06-20T11:00Z
TLE epoch observation values (Epoch: 2026-06-20T11:00:01.711Z)
Latitude
-0.00002°
Longitude
130.13897°
Altitude
463.532 km
Speed
7.636 km/s
True Right ascension
13h 35m 16s
True Declination
0° 00' 00"
Sunlit
Object was in full shadow at epoch
Visualization orbit readout
Latitude
Unknown
Longitude
Unknown
Altitude
Unknown
Speed
Unknown
Apparent Right ascension
Unknown
Apparent Declination
Unknown
Sunlit
N/A
Visualization observer readout
Local Sidereal Time
07:22:49
Azimuth
Unknown
Elevation
Unknown
Doppler factor
Unknown
Orbital elements
Apogee altitude
463.744 km
Perigee altitude
462.146 km
Semi-major axis
6,841.082 km
Eccentricity
0.00012
Inclination
53.1571°
RAAN
203.8188°
Arg. of periapsis
85.9776°
True anomaly
274.12265°
Mean anomaly
274.136°
Eccentric anomaly
274.12933°
Mean motion
3.8358 °/min
Orbital period
93.85 mins
BSTAR
0.00036682
Loading maneuver chart data...
Computing Atmospheric mass density...
Loading historical data...
Loading historical data...
Loading historical data...
Loading historical data...
Loading historical data...
Loading historical data...
Loading historical data...

Documentation

Showing up to 5 results
|